Hourly Data Report for September 28, 2017

All times are specified in Local Standard Time (LST). Add 1 hour to adjust for Daylight Saving Time where and when it is observed.

RANKIN INLET A
NUNAVUT

62°48'38.000" N
92°06'53.000" W
32.30 m
2303405
71083
YRT

Download Data

Hourly Data (September 2017)
Hourly Data Report for September 28, 2017
Temp Definition
°C
Dew Point Temp Definition
°C
Rel Hum Definition
%
Wind Dir Definition
10's deg

Wind Spd Definition
km/h
Visibility Definition
km
Stn Press Definition
kPa
Hmdx Definition


Wind Chill Definition


Weather Definition


TIME
00:00 Legend Double Dagger 2.5 1.8 96 36 5 24.1 101.26     Mainly Clear
01:00 Legend Double Dagger 2.8 2.4 97 30 9 24.1 101.31     LegendNANA
02:00 Legend Double Dagger 2.6 2.2 97 34 11 24.1 101.37     LegendNANA
03:00 Legend Double Dagger 3.1 2.7 97 36 31 24.1 101.43     Cloudy
04:00 Legend Double Dagger 1.8 0.6 92 35 46 24.1 101.54     Rain
05:00 Legend Double Dagger 0.7 -0.7 91 36 45 24.1 101.60     Rain
06:00 Legend Double Dagger 0.3 -1.4 88 36 40 24.1 101.69     Cloudy
07:00 Legend Double Dagger 0.0 -1.8 88 35 36 24.1 101.79   -7 LegendNANA
08:00 Legend Double Dagger 0.0 -3.0 80 1 43 24.1 101.88   -8 LegendNANA
09:00 Legend Double Dagger 0.5 -3.2 76 1 39 24.1 101.95     Mostly Cloudy
10:00 Legend Double Dagger 1.2 -2.8 75 36 35 24.1 101.98     LegendNANA
11:00 Legend Double Dagger 1.7 -3.6 68 36 30 24.1 102.03     LegendNANA
12:00 Legend Double Dagger 2.0 -3.7 66 35 29 24.1 102.06     Mainly Clear
13:00 Legend Double Dagger 2.2 -4.6 61 36 32 24.1 102.12     LegendNANA
14:00 Legend Double Dagger 2.4 -4.6 60 35 22 24.1 102.13     LegendNANA
15:00 Legend Double Dagger 2.0 -4.6 61 35 22 24.1 102.15     Mainly Clear
16:00 Legend Double Dagger 1.8 -4.7 62 35 24 24.1 102.19     LegendNANA
17:00 Legend Double Dagger 0.8 -5.2 64 34 23 24.1 102.21     LegendNANA
18:00 Legend Double Dagger -0.4 -4.4 74 34 17 24.1 102.21   -5 Mainly Clear
19:00 Legend Double Dagger -1.8 -4.9 80 30 13 24.1 102.21   -6 LegendNANA
20:00 Legend Double Dagger -1.8 -5.2 78 31 13 24.1 102.17   -6 LegendNANA
21:00 Legend Double Dagger -1.2 -5.5 72 30 13 24.1 102.16   -5 Mainly Clear
22:00 Legend Double Dagger -0.9 -5.0 74 29 10 24.1 102.13   -4 LegendNANA
23:00 Legend Double Dagger -1.1 -4.5 78 30 11 24.1 102.07   -5 LegendNANA

Notes on Data Quality.

Legend

  • E = Estimated
  • M = Missing
  • NA = Not Available
  • ‡ = Partner data that is not subject to review by the National Climate Archives
Date modified: